Meteo orario Golczewo

Oggi, 20 Aprile, Martedi

Tempo Temperatura Precipitazioni Vento Pressione Umidità
00:00 +7°C° 0 mm 1 m/s 746 mm Hg 60%
01:00 +7°C° 0 mm 1 m/s 746 mm Hg 62%
02:00 +7°C° 0 mm 1 m/s 746 mm Hg 65%
03:00 +7°C° 0 mm 1 m/s 746 mm Hg 68%
04:00 +6°C° 0 mm 0 m/s 745 mm Hg 70%
05:00 +7°C° 0 mm 0 m/s 745 mm Hg 68%
06:00 +8°C° 0 mm 0 m/s 745 mm Hg 67%
07:00 +9°C° 0 mm 0 m/s 745 mm Hg 65%
08:00 +12°C° 0 mm 1 m/s 745 mm Hg 58%
09:00 +14°C° 0 mm 1 m/s 745 mm Hg 52%
10:00 +15°C° 0 mm 1 m/s 745 mm Hg 45%
11:00 +16°C° 0 mm 1 m/s 744 mm Hg 42%
12:00 +16°C° 0 mm 2 m/s 744 mm Hg 40%
13:00 +16°C° 0 mm 2 m/s 744 mm Hg 37%
14:00 +16°C° 0 mm 2 m/s 744 mm Hg 38%
15:00 +16°C° 0 mm 3 m/s 743 mm Hg 40%
16:00 +14°C° 0 mm 3 m/s 743 mm Hg 41%
17:00 +13°C° 0 mm 3 m/s 743 mm Hg 49%
18:00 +12°C° 0 mm 2 m/s 743 mm Hg 57%
19:00 +10°C° 0 mm 2 m/s 743 mm Hg 65%
20:00 +9°C° 0 mm 2 m/s 743 mm Hg 67%
21:00 +9°C° 0 mm 1 m/s 743 mm Hg 70%
22:00 +9°C° 0 mm 1 m/s 743 mm Hg 73%
23:00 +8°C° 0 mm 1 m/s 743 mm Hg 74%

Domani, 21 Aprile, Mercoledi

Tempo Temperatura Precipitazioni Vento Pressione Umidità
00:00 +8°C° 0 mm 1 m/s 742 mm Hg 75%
01:00 +7°C° 0 mm 1 m/s 742 mm Hg 76%
02:00 +7°C° 0 mm 1 m/s 742 mm Hg 78%
03:00 +6°C° 0 mm 1 m/s 742 mm Hg 81%
04:00 +6°C° 0 mm 1 m/s 742 mm Hg 83%
05:00 +6°C° 0 mm 2 m/s 742 mm Hg 75%
06:00 +7°C° 0 mm 2 m/s 742 mm Hg 68%
07:00 +8°C° 0 mm 2 m/s 742 mm Hg 61%
08:00 +10°C° 0 mm 2 m/s 741 mm Hg 56%
09:00 +11°C° 0 mm 3 m/s 741 mm Hg 50%
10:00 +13°C° 0 mm 3 m/s 741 mm Hg 45%
11:00 +13°C° 0 mm 4 m/s 741 mm Hg 43%
12:00 +14°C° 0 mm 4 m/s 741 mm Hg 42%
13:00 +14°C° 0 mm 5 m/s 740 mm Hg 40%
14:00 +13°C° 0 mm 5 m/s 740 mm Hg 45%
15:00 +11°C° 0 mm 6 m/s 740 mm Hg 49%
16:00 +10°C° 0 mm 6 m/s 740 mm Hg 54%
17:00 +9°C° 0 mm 6 m/s 740 mm Hg 59%
18:00 +7°C° 0 mm 5 m/s 740 mm Hg 63%
19:00 +6°C° 0 mm 5 m/s 740 mm Hg 68%
20:00 +5°C° 0 mm 5 m/s 740 mm Hg 67%
21:00 +3°C° 0 mm 5 m/s 740 mm Hg 67%
22:00 +3°C° 0 mm 5 m/s 740 mm Hg 66%
23:00 +2°C° 0 mm 5 m/s 740 mm Hg 66%

Dopodomani, 22 Aprile, Giovedi

Tempo Temperatura Precipitazioni Vento Pressione Umidità
00:00 +1°C° 0 mm 6 m/s 740 mm Hg 67%
01:00 +1°C° 0 mm 6 m/s 740 mm Hg 67%
02:00 +1°C° 0 mm 6 m/s 740 mm Hg 70%
03:00 0°C° 0 mm 7 m/s 739 mm Hg 72%
04:00 -1°C° 0 mm 7 m/s 739 mm Hg 74%
05:00 0°C° 0 mm 7 m/s 739 mm Hg 73%
06:00 +2°C° 0 mm 7 m/s 739 mm Hg 71%
07:00 +1°C° 0 mm 8 m/s 739 mm Hg 69%
08:00 +2°C° 0 mm 8 m/s 739 mm Hg 60%
09:00 +3°C° 0 mm 9 m/s 740 mm Hg 51%
10:00 +5°C° 0 mm 9 m/s 740 mm Hg 43%
11:00 +6°C° 0 mm 9 m/s 740 mm Hg 42%
12:00 +6°C° 0 mm 9 m/s 740 mm Hg 41%
13:00 +6°C° 0 mm 9 m/s 740 mm Hg 41%
14:00 +5°C° 0 mm 9 m/s 741 mm Hg 44%
15:00 +4°C° 0 mm 8 m/s 741 mm Hg 48%
16:00 +4°C° 0 mm 8 m/s 741 mm Hg 51%
17:00 +3°C° 0 mm 7 m/s 741 mm Hg 55%
18:00 +2°C° 0 mm 6 m/s 741 mm Hg 59%
19:00 +2°C° 0 mm 6 m/s 741 mm Hg 64%
20:00 +2°C° 0 mm 6 m/s 742 mm Hg 66%
21:00 +2°C° 0 mm 6 m/s 742 mm Hg 68%
22:00 +2°C° 0 mm 6 m/s 742 mm Hg 70%
23:00 +1°C° 0 mm 6 m/s 742 mm Hg 69%

23 Aprile, Venerdi

Tempo Temperatura Precipitazioni Vento Pressione Umidità
00:00 +1°C° 0 mm 6 m/s 742 mm Hg 69%
01:00 +1°C° 0 mm 6 m/s 742 mm Hg 68%
02:00 +1°C° 0 mm 5 m/s 742 mm Hg 68%
03:00 0°C° 0 mm 5 m/s 743 mm Hg 69%
04:00 0°C° 0 mm 4 m/s 743 mm Hg 69%
05:00 0°C° 0.1 mm 5 m/s 743 mm Hg 66%
06:00 +1°C° 0.1 mm 6 m/s 743 mm Hg 63%
07:00 +2°C° 0.1 mm 6 m/s 744 mm Hg 60%
08:00 +2°C° 0.1 mm 6 m/s 744 mm Hg 55%
09:00 +3°C° 0.1 mm 7 m/s 744 mm Hg 51%
10:00 +3°C° 0.1 mm 7 m/s 745 mm Hg 46%
11:00 +4°C° 0 mm 7 m/s 745 mm Hg 43%
12:00 +4°C° 0 mm 7 m/s 746 mm Hg 40%
13:00 +4°C° 0 mm 7 m/s 746 mm Hg 37%
14:00 +4°C° 0 mm 7 m/s 746 mm Hg 36%
15:00 +4°C° 0 mm 7 m/s 747 mm Hg 34%
16:00 +4°C° 0 mm 6 m/s 747 mm Hg 33%
17:00 +3°C° 0 mm 6 m/s 747 mm Hg 38%
18:00 +3°C° 0 mm 5 m/s 747 mm Hg 43%
19:00 +3°C° 0 mm 4 m/s 747 mm Hg 48%
20:00 +3°C° 0 mm 4 m/s 747 mm Hg 54%
21:00 +2°C° 0 mm 3 m/s 747 mm Hg 60%
22:00 +2°C° 0 mm 3 m/s 747 mm Hg 65%
23:00 +2°C° 0 mm 3 m/s 747 mm Hg 66%

24 Aprile, Sabato

Tempo Temperatura Precipitazioni Vento Pressione Umidità
00:00 +1°C° 0 mm 3 m/s 747 mm Hg 67%
01:00 +1°C° 0 mm 3 m/s 747 mm Hg 68%
02:00 +1°C° 0 mm 3 m/s 747 mm Hg 73%
03:00 0°C° 0 mm 3 m/s 747 mm Hg 77%
04:00 -1°C° 0 mm 3 m/s 748 mm Hg 82%
05:00 0°C° 0 mm 4 m/s 748 mm Hg 75%
06:00 +1°C° 0 mm 4 m/s 748 mm Hg 69%
07:00 +3°C° 0 mm 4 m/s 748 mm Hg 63%
08:00 +4°C° 0 mm 4 m/s 748 mm Hg 54%
09:00 +6°C° 0 mm 5 m/s 748 mm Hg 45%
10:00 +7°C° 0 mm 5 m/s 748 mm Hg 37%
11:00 +6°C° 0 mm 5 m/s 748 mm Hg 40%
12:00 +5°C° 0 mm 6 m/s 748 mm Hg 43%
13:00 +5°C° 0 mm 6 m/s 747 mm Hg 46%
14:00 +5°C° 0 mm 6 m/s 747 mm Hg 41%
15:00 +5°C° 0 mm 6 m/s 747 mm Hg 36%
16:00 +5°C° 0 mm 6 m/s 747 mm Hg 31%
17:00 +3°C° 0 mm 5 m/s 748 mm Hg 36%
18:00 +3°C° 0 mm 4 m/s 748 mm Hg 42%
19:00 +2°C° 0 mm 3 m/s 748 mm Hg 47%
20:00 +2°C° 0 mm 2 m/s 748 mm Hg 55%
21:00 +1°C° 0 mm 2 m/s 748 mm Hg 63%
22:00 +1°C° 0 mm 2 m/s 749 mm Hg 71%
23:00 -1°C° 0 mm 2 m/s 749 mm Hg 76%

25 Aprile, Domenica

Tempo Temperatura Precipitazioni Vento Pressione Umidità
00:00 -1°C° 0 mm 2 m/s 749 mm Hg 81%
01:00 -2°C° 0 mm 2 m/s 749 mm Hg 86%
02:00 -2°C° 0 mm 2 m/s 749 mm Hg 87%
03:00 -2°C° 0 mm 3 m/s 749 mm Hg 89%
04:00 -2°C° 0 mm 3 m/s 749 mm Hg 91%
05:00 0°C° 0 mm 3 m/s 749 mm Hg 80%
06:00 +1°C° 0 mm 3 m/s 749 mm Hg 70%
07:00 +3°C° 0 mm 4 m/s 748 mm Hg 60%
08:00 +3°C° 0.2 mm 4 m/s 748 mm Hg 55%
09:00 +3°C° 0.2 mm 5 m/s 748 mm Hg 50%
10:00 +4°C° 0.2 mm 6 m/s 748 mm Hg 45%
11:00 +4°C° 0.1 mm 6 m/s 748 mm Hg 45%
12:00 +4°C° 0.1 mm 6 m/s 748 mm Hg 45%
13:00 +3°C° 0.1 mm 7 m/s 748 mm Hg 45%
14:00 +3°C° 0 mm 6 m/s 748 mm Hg 44%
15:00 +3°C° 0 mm 6 m/s 748 mm Hg 42%
16:00 +3°C° 0 mm 6 m/s 748 mm Hg 41%
17:00 +2°C° 0 mm 5 m/s 748 mm Hg 45%
18:00 +1°C° 0 mm 4 m/s 748 mm Hg 49%
19:00 +1°C° 0 mm 4 m/s 748 mm Hg 53%
20:00 +1°C° 0 mm 3 m/s 748 mm Hg 59%
21:00 0°C° 0 mm 3 m/s 747 mm Hg 65%
22:00 -1°C° 0 mm 2 m/s 747 mm Hg 70%
23:00 -1°C° 0 mm 2 m/s 747 mm Hg 70%
Mostrare altro

Abbiamo bisogno del tuo consenso

Meteoprog e i nostri fornitori di servizi possono memorizzare e accedere a dati personali come cookie, identificatori di dispositivi o altre tecnologie simili sul tuo dispositivo e possono elaborare tali dati per personalizzare i contenuti e gli annunci, nonché fornire funzionalità dei social media e analizzarne il traffico.

  • Archiviare e/o accedere alle informazioni sul tuo dispositivo

    Cookie, identificatori di dispositivi o altre informazioni possono essere memorizzati o resi accessibili sul tuo dispositivo per le finalità sopra indicate.

  • Annunci e contenuti personalizzati, misurazione di annunci e contenuti, approfondimenti sul pubblico e sviluppo di prodotti

    Gli annunci e i contenuti possono essere personalizzati in base a un profilo. È possibile aggiungere più dati per personalizzare meglio annunci e contenuti. È possibile misurare il rendimento degli annunci e dei contenuti. È possibile ricavare informazioni sul pubblico che ha visto gli annunci e i contenuti. Tali dati possono essere utilizzati per sviluppare o migliorare l'esperienza, i sistemi e il software dell'utente.

Cliccando su “Accetto”, acconsenti all'uso di cookie, identificatori di dispositivo, web beacon o altre tecnologie simili. Puoi modificare le impostazioni nel browser del tuo dispositivo.

Per determinati scopi, è possibile fare affidamento su interessi legali, piuttosto che sul consenso. Puoi approfondire questo argomento consultando la nostra Informativa sulla privacy e sui cookie.